Powrót do katalogu

SL-3 R/B

AktywnyPO
NORAD 13403·ROCKET BODY·🇷🇺 Russia

Wystrzelony Aug 5, 1982 z Plesetsk Cosmodrome

Loading…

Następne Przeloty (najbliższe 24 godziny)

TLE

ŚwieżeSource: Space-Track

Epoka: Sep 14, 2026, 14:42 UTC

1 13403U 82079B   26257.61276382  .00003779  00000-0  14290-3 0  9999
2 13403  81.1477 329.6548 0022721 243.5728 116.3175 15.26471344406509

Śledź SL-3 R/B w czasie rzeczywistym z AllMySat

Download on the App Store